Weather History for St. Johns, AZ

Change the Weather History Date:

Monday, December 24, 2012

  Actual Average (KSOW) Record (KSOW)
Temperature  
Mean Temperature 39 °F -  
Max Temperature 48 °F 41 °F 61 °F (1971)
Min Temperature 30 °F 23 °F -15 °F (1967)
Degree Days  
Heating Degree Days 26    
Moisture  
Dew Point 25 °F    
Average Humidity 69    
Maximum Humidity 93    
Minimum Humidity 35    
Precipitation  
Precipitation 0.06 in - - ()
Sea Level Pressure  
Sea Level Pressure 29.84 in    
Wind  
Wind Speed 13 mph (West)    
Max Wind Speed 37 mph    
Max Gust Speed 52 mph    
Visibility 7 miles    
Events Fog , Rain , Snow    
Averages and records for this station are not official NWS values.
T = Trace of Precipitation, MM = Missing Value Source: NWS Daily Summary

Daily Weather History Graph

Daily Weather History Graph

Search for Another Location

Airport:

Trip Planner

Search our weather history database for the weather conditions in past years. The results will help you decide how hot, cold, wet, or windy it might be!

Date:

Astronomy

Dec. 24, 2012 Rise Set
Actual Time 7:22 AM MST 5:12 PM MST
Civil Twilight 6:54 AM MST 5:40 PM MST
Nautical Twilight 6:22 AM MST 6:12 PM MST
Astronomical Twilight 5:51 AM MST 6:43 PM MST
Moon 2:39 PM MST (12/24) 4:06 AM MST (12/24)
Length of Visible Light 10h 46m
Length of Day
9h 50m
Waxing Gibbous, 89% of the Moon is Illuminated
Dec 24
Waxing Gibbous
Dec 28
Full
Jan 4
Last Quarter
Jan 11
New
Jan 18
First Quarter

Hourly Weather History & Observations

Time (MST) Temp. Windchill Dew Point Humidity Pressure Visibility Wind Dir Wind Speed Gust Speed Precip Events Conditions
12:54 AM 32.0 °F - 18.0 °F 56% 29.96 in 10.0 mi Calm Calm - N/A   Scattered Clouds
1:54 AM 33.1 °F - 19.0 °F 56% 29.95 in 10.0 mi Calm Calm - N/A   Overcast
2:54 AM 32.0 °F 27.5 °F 19.9 °F 61% 29.93 in 10.0 mi South 4.6 mph - N/A   Overcast
3:54 AM 30.0 °F 25.2 °F 19.0 °F 64% 29.91 in 10.0 mi South 4.6 mph - N/A   Clear
4:54 AM 32.0 °F 26.4 °F 16.0 °F 52% 29.88 in 10.0 mi NE 5.8 mph - N/A   Scattered Clouds
5:54 AM 35.1 °F 29.3 °F 12.0 °F 39% 29.89 in 10.0 mi WSW 6.9 mph - N/A   Scattered Clouds
6:54 AM 39.9 °F 34.5 °F 15.1 °F 36% 29.88 in 10.0 mi SW 8.1 mph - N/A   Mostly Cloudy
7:54 AM 39.9 °F 31.8 °F 19.0 °F 43% 29.89 in 10.0 mi SSW 15.0 mph - N/A   Clear
8:54 AM 42.1 °F 35.7 °F 19.0 °F 40% 29.89 in 10.0 mi SW 11.5 mph - N/A   Clear
9:54 AM 46.0 °F 39.0 °F 19.9 °F 35% 29.87 in 10.0 mi SW 17.3 mph - N/A   Clear
10:54 AM 46.0 °F 39.9 °F 23.0 °F 40% 29.87 in 10.0 mi SW 13.8 mph 26.5 mph N/A   Clear
11:54 AM 48.9 °F - 25.0 °F 39% 29.82 in 10.0 mi West 19.6 mph 29.9 mph N/A   Mostly Cloudy
12:54 PM 48.9 °F - 26.1 °F 41% 29.78 in 10.0 mi WSW 19.6 mph 29.9 mph N/A   Scattered Clouds
1:54 PM 48.0 °F - 25.0 °F 41% 29.74 in 10.0 mi WSW 26.5 mph 34.5 mph N/A   Mostly Cloudy
2:54 PM 46.9 °F - 28.0 °F 48% 29.73 in 10.0 mi WSW 17.3 mph 29.9 mph 0.00 in   Overcast
3:54 PM 43.0 °F 34.5 °F 30.9 °F 62% 29.72 in 10.0 mi West 19.6 mph 24.2 mph 0.00 in   Overcast
4:12 PM 35.6 °F 21.3 °F 32.0 °F 87% 29.80 in 1.8 mi West 36.8 mph 48.3 mph 0.02 in Rain Rain
4:18 PM 35.6 °F 23.0 °F 33.8 °F 93% 29.80 in 2.0 mi West 27.6 mph 46.0 mph 0.03 in Rain Light Rain
4:28 PM 37.4 °F 25.6 °F 33.8 °F 87% 29.80 in 9.0 mi West 26.5 mph 35.7 mph 0.03 in Rain Light Rain
4:34 PM 35.6 °F 21.5 °F 32.0 °F 87% 29.82 in 1.2 mi WNW 35.7 mph 51.8 mph 0.04 in Rain Light Rain
4:37 PM 33.8 °F 20.8 °F 30.2 °F 87% 29.83 in 0.5 mi WNW 26.5 mph 51.8 mph 0.04 in Fog , Snow Snow
4:54 PM 32.0 °F 17.0 °F 30.0 °F 92% 29.83 in 0.2 mi WNW 33.4 mph 47.2 mph 0.05 in Fog , Snow Snow
5:04 PM 32.0 °F 17.4 °F 30.2 °F 93% 29.84 in 0.5 mi NW 31.1 mph 40.3 mph 0.00 in Fog , Snow Light Snow
5:18 PM 30.2 °F 16.2 °F 28.4 °F 93% 29.85 in 0.8 mi NW 25.3 mph 35.7 mph 0.01 in Snow Light Snow
5:26 PM 30.2 °F 17.4 °F 28.4 °F 93% 29.86 in 1.2 mi WNW 20.7 mph 33.4 mph 0.01 in Snow Light Snow
5:34 PM 30.2 °F 15.4 °F 28.4 °F 93% 29.86 in 0.5 mi WNW 28.8 mph 38.0 mph 0.01 in Fog , Snow Snow
5:48 PM 30.2 °F 17.8 °F 28.4 °F 93% 29.84 in 1.2 mi NW 19.6 mph 29.9 mph 0.01 in Snow Light Snow
5:54 PM 30.9 °F 19.1 °F 28.9 °F 92% 29.82 in 3.0 mi WNW 18.4 mph - 0.01 in Snow Light Snow
6:03 PM 30.2 °F 18.1 °F 28.4 °F 93% 29.85 in 9.0 mi WNW 18.4 mph 24.2 mph 0.00 in   Overcast
6:30 PM 33.8 °F 22.5 °F 24.8 °F 70% 29.83 in 4.0 mi West 19.6 mph 43.7 mph 0.00 in Snow Light Snow
6:41 PM 33.8 °F 23.2 °F 26.6 °F 75% 29.84 in 9.0 mi West 17.3 mph 28.8 mph 0.00 in   Overcast
6:54 PM 32.0 °F 20.8 °F 27.0 °F 82% 29.80 in 10.0 mi West 17.3 mph 24.2 mph 0.00 in   Overcast
7:54 PM 32.0 °F 22.1 °F 27.0 °F 82% 29.80 in 10.0 mi West 13.8 mph 24.2 mph N/A   Overcast
8:54 PM 30.9 °F 21.2 °F 25.0 °F 79% 29.81 in 10.0 mi West 12.7 mph - N/A   Clear
9:54 PM 30.9 °F 20.7 °F 25.0 °F 79% 29.80 in 10.0 mi West 13.8 mph - N/A   Mostly Cloudy
10:54 PM 32.0 °F 19.8 °F 24.1 °F 73% 29.82 in 10.0 mi West 20.7 mph - N/A   Overcast
11:54 PM 30.9 °F 21.7 °F 25.0 °F 79% 29.83 in 10.0 mi West 11.5 mph - N/A   Overcast